St. George, AK

12:08 AM AKDT on May 26, 2017 (GMT -0800)
Saint George

Weather History for PAPB - January, 2012

Change the Weather History Date:

Sunday, January 22, 2012

  Actual Average Record
Temperature  
Mean Temperature 12 °F -  
Max Temperature 15 °F 30 °F 39 °F (1997)
Min Temperature 8 °F 24 °F 8 °F (2012)
Degree Days  
Heating Degree Days 54    
Moisture  
Dew Point 7 °F    
Average Humidity 79    
Maximum Humidity 93    
Minimum Humidity 62    
Precipitation  
Precipitation 0.00 in - - ()
Sea Level Pressure  
Sea Level Pressure 29.59 in    
Wind  
Wind Speed 27 mph (North)    
Max Wind Speed 43 mph    
Max Gust Speed 68 mph    
Visibility 1 miles    
Events Fog , Snow    
Averages and records for this station are not official NWS values.
T = Trace of Precipitation, MM = Missing Value Source: NWS Daily Summary

Daily Weather History Graph

Daily Weather History Graph

Search for Another Location

Airport or City:

Trip Planner

Search our weather history database for the weather conditions in past years. The results will help you decide how hot, cold, wet, or windy it might be!

Date:

Astronomy

Jan. 22, 2012 Rise Set
Actual Time 10:33 AM AKST 6:27 PM AKST
Civil Twilight 9:49 AM AKST 7:11 PM AKST
Nautical Twilight 9:02 AM AKST 7:58 PM AKST
Astronomical Twilight 8:17 AM AKST 8:43 PM AKST
Moon 9:56 AM AKST (1/22) 6:30 PM AKST (1/22)
Length of Visible Light 9h 21m
Length of Day
7h 53m
Waning Crescent, 0% of the Moon is Illuminated
Jan 22
Waning Crescent
Jan 22
New
Jan 30
First Quarter
Feb 7
Full
Feb 14
Last Quarter

Hourly Weather History & Observations

Time (AKST) Temp. Windchill Dew Point Humidity Pressure Visibility Wind Dir Wind Speed Gust Speed Precip Events Conditions
12:04 AM 12.2 °F -8.6 °F 8.6 °F 85% 29.59 in 1.2 mi North 27.6 mph 44.9 mph 0.00 in Snow Light Snow
12:53 AM 12.0 °F -9.5 °F 7.0 °F 80% 29.57 in 1.2 mi North 29.9 mph 42.6 mph 0.00 in Snow Light Snow
12:58 AM 12.2 °F -9.6 °F 6.8 °F 79% 29.59 in 0.8 mi North 31.1 mph 48.3 mph 0.00 in Snow Light Snow
1:17 AM 12.2 °F -9.9 °F 8.6 °F 85% 29.59 in 0.8 mi North 32.2 mph 44.9 mph 0.00 in Snow Light Snow
1:34 AM 12.2 °F -9.3 °F 8.6 °F 85% 29.60 in 1.2 mi North 29.9 mph 42.6 mph 0.00 in Snow Light Snow
1:40 AM 12.2 °F -8.9 °F 8.6 °F 85% 29.59 in 0.8 mi North 28.8 mph 41.4 mph 0.00 in Snow Light Snow
1:53 AM 12.0 °F -9.2 °F 8.1 °F 84% 29.58 in 1.0 mi North 28.8 mph 42.6 mph 0.00 in Snow Light Snow
2:00 AM 12.2 °F -7.9 °F 8.6 °F 85% 29.61 in 1.2 mi North 25.3 mph 40.3 mph 0.00 in Snow Light Snow
2:07 AM 12.2 °F -9.3 °F 6.8 °F 79% 29.59 in 1.5 mi North 29.9 mph 51.8 mph 0.00 in Snow Light Snow
2:20 AM 12.2 °F -8.2 °F 5.0 °F 73% 29.61 in 2.5 mi North 26.5 mph 49.5 mph 0.00 in Snow Light Snow
2:29 AM 12.2 °F -9.6 °F 5.0 °F 73% 29.59 in 4.0 mi NNW 31.1 mph 50.6 mph 0.00 in Snow Light Snow
2:53 AM 12.0 °F -8.5 °F 5.0 °F 73% 29.57 in 2.5 mi North 26.5 mph 42.6 mph 0.00 in Snow Light Snow
3:00 AM 12.2 °F -5.3 °F 6.8 °F 79% 29.61 in 1.0 mi North 18.4 mph 47.2 mph 0.00 in Snow Light Snow
3:05 AM 12.2 °F -7.5 °F 6.8 °F 79% 29.60 in 0.8 mi North 24.2 mph 47.2 mph 0.00 in Snow Light Snow
3:17 AM 12.2 °F -9.9 °F 8.6 °F 85% 29.60 in 0.5 mi North 32.2 mph 49.5 mph 0.00 in Fog , Snow Snow
3:38 AM 12.2 °F -10.2 °F 8.6 °F 85% 29.59 in 0.8 mi North 33.4 mph 57.5 mph 0.00 in Snow Light Snow
3:40 AM 12.2 °F -8.6 °F 6.8 °F 79% 29.60 in 1.2 mi NNW 27.6 mph 51.8 mph 0.00 in Snow Light Snow
3:50 AM 12.2 °F -7.5 °F 6.8 °F 79% 29.59 in 3.0 mi NNW 24.2 mph 54.1 mph 0.00 in Snow Light Snow
3:53 AM 12.9 °F -5.3 °F 6.1 °F 74% 29.58 in 3.0 mi North 20.7 mph 56.4 mph 0.00 in Snow Light Snow
4:05 AM 12.2 °F -7.9 °F 6.8 °F 79% 29.59 in 1.5 mi North 25.3 mph 46.0 mph 0.00 in Snow Light Snow
4:18 AM 12.2 °F -6.3 °F 6.8 °F 79% 29.60 in 3.0 mi NNW 20.7 mph 48.3 mph 0.00 in Snow Light Snow
4:48 AM 12.2 °F -11.6 °F 6.8 °F 79% 29.59 in 1.8 mi NNW 39.1 mph 57.5 mph 0.00 in Snow Light Snow
4:49 AM 12.0 °F -9.8 °F 6.1 °F 77% 29.57 in 1.8 mi North 31.1 mph 57.5 mph 0.00 in Snow Light Snow
5:10 AM 12.2 °F -9.9 °F 6.8 °F 79% 29.60 in 1.0 mi NNW 32.2 mph 51.8 mph 0.00 in Snow Light Snow
5:26 AM 12.2 °F -7.1 °F 8.6 °F 85% 29.61 in 0.8 mi NNW 23.0 mph 46.0 mph 0.00 in Snow Light Snow
5:40 AM 12.2 °F -6.7 °F 6.8 °F 79% 29.61 in 1.2 mi NNE 21.9 mph 41.4 mph 0.00 in Snow Light Snow
5:53 AM 12.0 °F -8.5 °F 7.0 °F 80% 29.57 in 1.0 mi North 26.5 mph 46.0 mph 0.00 in Snow Light Snow
6:31 AM 12.2 °F -6.7 °F 8.6 °F 85% 29.62 in 0.8 mi North 21.9 mph 44.9 mph 0.00 in Snow Light Snow
6:45 AM 12.2 °F -8.9 °F 6.8 °F 79% 29.60 in 1.0 mi NNW 28.8 mph 43.7 mph 0.00 in Snow Light Snow
6:53 AM 12.9 °F -4.4 °F 8.1 °F 81% 29.59 in 0.8 mi North 18.4 mph 51.8 mph 0.00 in Snow Light Snow
7:03 AM 12.2 °F -10.2 °F 8.6 °F 85% 29.61 in 0.8 mi North 33.4 mph 54.1 mph 0.00 in Snow Light Snow
7:08 AM 12.2 °F -6.7 °F 8.6 °F 85% 29.61 in 1.0 mi NNW 21.9 mph 54.1 mph 0.00 in Snow Light Snow
7:18 AM 12.2 °F -5.8 °F 6.8 °F 79% 29.61 in 1.2 mi NNW 19.6 mph 57.5 mph 0.00 in Snow Light Snow
7:27 AM 12.2 °F -9.6 °F 8.6 °F 85% 29.61 in 1.0 mi NNW 31.1 mph 48.3 mph 0.00 in Snow Light Snow
7:41 AM 14.0 °F -5.5 °F 8.6 °F 79% 29.60 in 1.2 mi North 25.3 mph 40.3 mph 0.00 in Snow Light Snow
7:50 AM 14.0 °F -4.7 °F 8.6 °F 79% 29.60 in 0.8 mi NNW 23.0 mph 49.5 mph 0.00 in Snow Light Snow
7:53 AM 14.0 °F -7.7 °F 9.0 °F 80% 29.55 in 0.5 mi NNW 33.4 mph 49.5 mph 0.00 in Snow Snow
8:19 AM 14.0 °F -5.8 °F 10.4 °F 86% 29.60 in 1.0 mi North 26.5 mph 50.6 mph 0.00 in Snow Light Snow
8:28 AM 14.0 °F -4.7 °F 8.6 °F 79% 29.60 in 1.5 mi NNW 23.0 mph 41.4 mph 0.00 in Snow Light Snow
8:37 AM 14.0 °F -4.3 °F 8.6 °F 79% 29.60 in 0.8 mi NNW 21.9 mph 51.8 mph 0.00 in Snow Light Snow
8:45 AM 14.0 °F -5.1 °F 10.4 °F 86% 29.59 in 0.5 mi NNW 24.2 mph 55.2 mph 0.00 in Fog , Snow Snow
8:53 AM 14.0 °F -7.1 °F 10.9 °F 88% 29.57 in 0.2 mi North 31.1 mph 57.5 mph 0.00 in Fog , Snow Heavy Snow
9:15 AM 14.0 °F -7.4 °F 10.4 °F 86% 29.59 in 0.8 mi NNW 32.2 mph 57.5 mph 0.00 in Snow Light Snow
9:34 AM 14.0 °F -7.7 °F 10.4 °F 86% 29.58 in 1.0 mi North 33.4 mph 56.4 mph 0.00 in Snow Light Snow
9:37 AM 14.0 °F -6.8 °F 10.4 °F 86% 29.59 in 0.8 mi North 29.9 mph 56.4 mph 0.00 in Snow Light Snow
9:53 AM 14.0 °F -7.7 °F 10.9 °F 88% 29.57 in 0.2 mi North 33.4 mph 56.4 mph 0.00 in Fog , Snow Snow
10:12 AM 14.0 °F -6.8 °F 8.6 °F 79% 29.59 in 1.2 mi NNW 29.9 mph 54.1 mph 0.00 in Snow Light Snow
10:17 AM 14.0 °F -6.5 °F 6.8 °F 73% - 2.0 mi NNW 28.8 mph 62.1 mph 0.00 in Snow Light Snow
10:28 AM 14.0 °F -4.7 °F 8.6 °F 79% - 1.0 mi North 23.0 mph 47.2 mph 0.00 in Snow Light Snow
10:40 AM 14.0 °F -3.9 °F 8.6 °F 79% - 0.8 mi North 20.7 mph 46.0 mph 0.00 in Snow Light Snow
10:49 AM 15.8 °F -2.3 °F 10.4 °F 79% - 0.5 mi NE 23.0 mph 44.9 mph 0.00 in Snow Snow
10:53 AM 15.1 °F 0.5 °F 10.9 °F 84% - 0.5 mi North 13.8 mph 44.9 mph 0.00 in Fog , Snow Light Snow
10:56 AM 15.8 °F -4.7 °F 10.4 °F 79% - 0.5 mi NNW 31.1 mph 46.0 mph 0.00 in Fog , Snow Light Snow
11:08 AM 14.0 °F -3.4 °F 12.2 °F 93% - 0.5 mi North 19.6 mph 50.6 mph 0.00 in Fog , Snow Snow
11:11 AM 15.8 °F -1.9 °F 12.2 °F 86% - 1.0 mi NNW 21.9 mph 50.6 mph 0.00 in Snow Light Snow
11:19 AM 15.8 °F -1.1 °F 10.4 °F 79% - 1.5 mi North 19.6 mph 54.1 mph 0.00 in Snow Light Snow
11:31 AM 15.8 °F -4.4 °F 10.4 °F 79% - 0.8 mi NNW 29.9 mph 42.6 mph 0.00 in Snow Light Snow
11:53 AM 14.0 °F -7.7 °F 10.0 °F 84% - 0.5 mi NNW 33.4 mph 65.6 mph 0.00 in Fog , Snow Light Snow
11:59 AM 15.8 °F -0.2 °F 8.6 °F 73% - 1.0 mi NNW 17.3 mph 55.2 mph 0.00 in Snow Light Snow
12:06 PM 15.8 °F 0.9 °F 10.4 °F 79% - 0.8 mi NNW 15.0 mph 47.2 mph 0.00 in Snow Light Snow
12:28 PM 15.8 °F -2.7 °F 12.2 °F 86% - 0.2 mi North 24.2 mph 57.5 mph 0.00 in Fog , Snow Light Snow
12:39 PM 15.8 °F -3.7 °F 12.2 °F 86% - 0.5 mi NNW 27.6 mph 55.2 mph 0.00 in Fog , Snow Snow
12:53 PM 15.1 °F -1.1 °F 12.0 °F 88% - 0.5 mi NNW 17.3 mph 59.8 mph 0.00 in Fog , Snow Snow
1:00 PM 15.8 °F -5.0 °F 10.4 °F 79% - 1.0 mi NNW 32.2 mph 57.5 mph 0.00 in Snow Light Snow
1:07 PM 15.8 °F -5.0 °F 8.6 °F 73% - 1.2 mi North 32.2 mph 61.0 mph 0.00 in Snow Light Snow
1:09 PM 15.8 °F -4.4 °F 8.6 °F 73% - 0.8 mi NNW 29.9 mph 61.0 mph 0.00 in Snow Light Snow
1:20 PM 15.8 °F -0.6 °F 10.4 °F 79% - 0.5 mi North 18.4 mph 64.4 mph 0.00 in Fog , Snow Light Snow
1:25 PM 15.8 °F -3.1 °F 10.4 °F 79% - 1.0 mi North 25.3 mph 56.4 mph 0.00 in Snow Light Snow
1:34 PM 15.8 °F -4.4 °F 8.6 °F 73% - 1.5 mi North 29.9 mph 56.4 mph 0.00 in Snow Light Snow
1:40 PM 15.8 °F -7.3 °F 6.8 °F 68% - 3.0 mi NNW 42.6 mph 56.4 mph 0.00 in Snow Light Snow
1:50 PM 15.8 °F -3.1 °F 6.8 °F 68% - 1.8 mi NNW 25.3 mph 62.1 mph 0.00 in Snow Light Snow
1:53 PM 15.1 °F -5.3 °F 7.0 °F 70% - 1.0 mi NNW 29.9 mph 55.2 mph 0.00 in Snow Light Snow
2:00 PM 15.8 °F -5.8 °F 8.6 °F 73% - 0.5 mi NNW 35.7 mph 55.2 mph 0.00 in Snow Snow
2:16 PM 15.8 °F -4.4 °F 10.4 °F 79% - 0.2 mi North 29.9 mph 67.9 mph 0.00 in Snow Heavy Snow
2:27 PM 15.8 °F -5.5 °F 8.6 °F 73% - 1.0 mi North 34.5 mph 56.4 mph 0.00 in Snow Light Snow
2:36 PM 15.8 °F -5.8 °F 6.8 °F 68% - 1.2 mi North 35.7 mph 57.5 mph 0.00 in Snow Light Snow
2:48 PM 15.8 °F -5.2 °F 6.8 °F 68% - 0.8 mi North 33.4 mph 67.9 mph 0.00 in Snow Light Snow
2:53 PM 15.1 °F -5.7 °F 8.1 °F 74% - 0.5 mi NNW 31.1 mph 67.9 mph 0.00 in Snow Snow
3:02 PM 15.8 °F -6.1 °F 6.8 °F 68% - 1.2 mi North 36.8 mph 55.2 mph 0.00 in Snow Light Snow
3:07 PM 15.8 °F -4.4 °F 6.8 °F 68% - 3.0 mi NW 29.9 mph 61.0 mph 0.00 in Snow Light Snow
3:11 PM 15.8 °F -4.1 °F 6.8 °F 68% - 1.8 mi North 28.8 mph 61.0 mph 0.00 in Snow Light Snow
3:20 PM 15.8 °F -4.1 °F 8.6 °F 73% - 0.8 mi NNW 28.8 mph 59.8 mph 0.00 in Snow Light Snow
3:27 PM 15.8 °F -5.0 °F 6.8 °F 68% - 2.5 mi NNW 32.2 mph 66.7 mph 0.00 in Snow Light Snow
3:48 PM 15.8 °F -1.9 °F 6.8 °F 68% - 3.0 mi North 21.9 mph 51.8 mph 0.00 in Snow Light Snow
3:53 PM 15.1 °F -4.7 °F 6.1 °F 68% - 3.0 mi North 27.6 mph 51.8 mph 0.00 in Snow Light Snow
4:00 PM 15.8 °F -4.7 °F 5.0 °F 62% - 1.8 mi North 31.1 mph 63.3 mph 0.00 in Snow Light Snow
4:17 PM 14.0 °F -6.8 °F 6.8 °F 73% - 2.0 mi NNW 29.9 mph 57.5 mph 0.00 in Snow Light Snow
4:25 PM 14.0 °F -5.8 °F 6.8 °F 73% - 1.2 mi NNW 26.5 mph 57.5 mph 0.00 in Snow Light Snow
4:31 PM 14.0 °F -5.1 °F 6.8 °F 73% - 0.8 mi North 24.2 mph 57.5 mph 0.00 in Snow Light Snow
4:49 PM 12.2 °F -6.3 °F 8.6 °F 85% - 0.2 mi North 20.7 mph 55.2 mph 0.00 in Fog , Snow Snow
4:53 PM 12.9 °F -3.9 °F 10.0 °F 88% - 0.2 mi North 17.3 mph 55.2 mph 0.00 in Fog , Snow Snow
5:01 PM 12.2 °F -10.2 °F 10.4 °F 92% - 0.5 mi NNW 33.4 mph 55.2 mph 0.00 in Fog , Snow Snow
5:12 PM 12.2 °F -10.5 °F 8.6 °F 85% - 1.2 mi North 34.5 mph 46.0 mph 0.00 in Snow Light Snow
5:19 PM 12.2 °F -4.8 °F 6.8 °F 79% - 1.2 mi North 17.3 mph 51.8 mph 0.00 in Snow Light Snow
5:28 PM 12.2 °F -8.6 °F 5.0 °F 73% - 1.8 mi NNW 27.6 mph 46.0 mph 0.00 in Snow Light Snow
5:41 PM 12.2 °F -8.6 °F 5.0 °F 73% - 3.0 mi North 27.6 mph 48.3 mph 0.00 in Snow Light Snow
5:53 PM 12.0 °F -7.7 °F 5.0 °F 73% - 2.5 mi North 24.2 mph 52.9 mph 0.00 in Snow Light Snow
6:09 PM 12.2 °F -6.7 °F 5.0 °F 73% - 1.5 mi North 21.9 mph 46.0 mph 0.00 in Snow Light Snow
6:22 PM 12.2 °F -6.7 °F 3.2 °F 67% - 3.0 mi NNW 21.9 mph 51.8 mph 0.00 in Snow Light Snow
6:31 PM 10.4 °F -10.7 °F 3.2 °F 73% - 2.5 mi North 26.5 mph 59.8 mph 0.00 in Snow Light Snow
6:49 PM 10.4 °F -12.3 °F 5.0 °F 79% - 1.5 mi North 32.2 mph 50.6 mph 0.00 in Snow Light Snow
6:53 PM 10.9 °F -9.2 °F 3.9 °F 73% - 1.5 mi NNW 24.2 mph 50.6 mph 0.00 in Snow Light Snow
7:04 PM 10.4 °F -8.6 °F 3.2 °F 73% - 2.0 mi NNW 20.7 mph 40.3 mph 0.00 in Snow Light Snow
7:23 PM 10.4 °F -8.6 °F 3.2 °F 73% - 4.0 mi North 20.7 mph 50.6 mph 0.00 in Snow Light Snow
7:53 PM 10.9 °F -7.5 °F 3.0 °F 70% - 2.0 mi North 19.6 mph 58.7 mph 0.00 in Snow Light Snow
8:11 PM 10.4 °F -8.2 °F 3.2 °F 73% - 1.0 mi North 19.6 mph 47.2 mph 0.00 in Snow Light Snow
8:16 PM 10.4 °F -9.1 °F 6.8 °F 85% - 0.5 mi NNW 21.9 mph 43.7 mph 0.00 in Snow Snow
8:23 PM 10.4 °F -8.6 °F 6.8 °F 85% - 0.5 mi North 20.7 mph 46.0 mph 0.00 in Fog , Snow Snow
8:53 PM 10.0 °F -10.0 °F 7.0 °F 87% - 0.5 mi North 23.0 mph 49.5 mph 0.00 in Fog , Snow Light Snow
9:05 PM 8.6 °F -13.1 °F 6.8 °F 92% - 0.2 mi North 26.5 mph 56.4 mph 0.00 in Fog , Snow Light Snow
9:22 PM 8.6 °F -13.8 °F 5.0 °F 85% - 1.2 mi NW 28.8 mph 48.3 mph 0.00 in Snow Light Snow
9:32 PM 8.6 °F -13.1 °F 3.2 °F 79% - 0.8 mi North 26.5 mph 55.2 mph 0.00 in Snow Light Snow
9:41 PM 8.6 °F -13.1 °F 3.2 °F 79% - 1.2 mi NNE 26.5 mph 48.3 mph 0.00 in Snow Light Snow
9:53 PM 9.0 °F -12.2 °F 3.0 °F 77% - 1.0 mi North 25.3 mph 55.2 mph 0.00 in Snow Light Snow
10:08 PM 8.6 °F -11.0 °F 3.2 °F 79% - 0.5 mi North 20.7 mph 43.7 mph 0.00 in Fog , Snow Light Snow
10:29 PM 8.6 °F -10.0 °F 3.2 °F 79% - 1.2 mi North 18.4 mph 48.3 mph 0.00 in Snow Light Snow
10:32 PM 8.6 °F -12.7 °F 3.2 °F 79% - 0.8 mi North 25.3 mph 47.2 mph 0.00 in Snow Light Snow
10:53 PM 8.1 °F -15.9 °F 3.0 °F 80% - 1.0 mi North 33.4 mph 59.8 mph 0.00 in Snow Light Snow
11:10 PM 8.6 °F -11.0 °F 1.4 °F 73% - 1.2 mi NNW 20.7 mph 43.7 mph 0.00 in Snow Light Snow
11:19 PM 8.6 °F -11.4 °F 3.2 °F 79% - 1.0 mi North 21.9 mph 39.1 mph 0.00 in Snow Light Snow
11:42 PM 8.6 °F -16.0 °F 3.2 °F 79% - 0.5 mi NNE 36.8 mph 58.7 mph 0.00 in Snow Snow
11:53 PM 8.1 °F -9.0 °F 3.9 °F 83% - 0.5 mi North 15.0 mph 43.7 mph 0.00 in Fog , Snow Light Snow